Location: Le Nouhaud
(46.1622°N, 1.4492°E)
Time: 14:44:28
(UTC+00:00)

Daily predictions for brighter satellites

Satellite Brightness Start Highest point End
(mag) Time Altitude Azimuth Time Altitude Azimuth Time Altitude Azimuth
ADEOS Rocket 3.3 18:48:11 10° NNE 18:54:43 77° WNW 19:00:33 10° SSW
STARLINK-1128 4.4 18:51:17 10° WNW 18:55:17 48° SW 18:59:16 10° SE
SL-16 R/B 3.1 18:50:16 10° SW 18:55:49 56° WNW 19:01:25 10° NNE
CZ-2C R/B 4.1 18:55:12 10° NE 18:58:11 15° E 19:01:09 10° SE
NOSS 3-3 (A) 4.0 18:54:44 10° SSW 19:00:25 59° ESE 19:06:50 10° NE
NOSS 3-3 (C) 4.0 18:54:51 10° SSW 19:00:32 59° ESE 19:06:56 10° NE
Cosmos 2251 Rocket 3.6 18:56:18 10° S 19:01:34 60° ESE 19:06:53 10° NNE
Cosmos 1726 3.0 18:58:41 10° SSE 19:01:57 30° E 19:05:15 10° NNE
ARGOS 3.4 18:59:10 10° SE 19:04:21 51° ENE 19:09:33 10° N
MONITOR-E 4.5 19:03:39 10° SE 19:06:05 34° ENE 19:08:32 10° N
YAOGAN 1 4.3 19:02:08 10° SSW 19:06:08 37° W 19:10:11 10° NNW
Cosmos 2184 Rocket 4.4 19:00:18 10° N 19:06:20 46° ENE 19:12:16 10° SSE
ISS -2.7 19:03:13 10° WNW 19:06:25 42° SW 19:09:37 10° SE
SJ-6B 3.5 19:03:59 10° SE 19:07:49 40° ENE 19:11:42 10° N
BREEZE M DEB (TANK) 4.3 19:08:41 10° SE 19:09:58 11° ESE 19:11:38 10° E
Meteor 2-10 4.4 19:05:34 10° SSE 19:10:44 47° E 19:16:07 10° NNE
Cosmos 1626 Rocket 4.0 19:07:56 10° NNW 19:12:17 66° W 19:16:35 10° S
STARLINK-67 4.5 19:10:16 10° NW 19:12:17 20° N 19:14:21 10° ENE
USA 186 2.0 19:09:29 10° SSE 19:12:47 54° ENE 19:15:57 10° N
Cosmos 1603 3.6 19:12:50 10° SSW 19:18:25 69° ESE 19:24:00 10° NNE
IRIDIUM 104 4.4 19:14:20 10° N 19:19:31 63° E 19:24:41 10° SSE
FREGAT/IRIS 2.2 19:16:57 10° SSE 19:19:38 68° ENE 19:22:22 10° N
Cosmos 2058 Rocket 4.5 19:17:05 10° SE 19:20:21 20° E 19:23:38 10° NE
Ariane Rocket 3.1 19:16:25 10° SSE 19:21:30 86° WSW 19:26:36 10° NNW
Cosmos 1758 4.1 19:17:49 10° SSW 19:21:51 57° WNW 19:25:54 10° N
Cosmos 1602 Rocket 4.0 19:18:33 10° NNW 19:22:58 66° W 19:27:19 10° S
ATLAS 2AS CENTAUR R/B 3.2 19:16:20 10° NW 19:23:51 53° NE 19:29:59 14° ESE
Resurs 01 Rocket 2.9 19:21:42 13° ESE 19:24:39 24° ENE 19:28:11 10° NNE
Meteor 1-21 Rocket 4.2 19:19:50 10° N 19:25:25 89° E 19:30:58 10° S
USA 234 4.1 19:20:25 10° ENE 19:25:49 27° SE 19:31:12 10° S
MOS 1 4.3 19:20:17 10° SSE 19:25:55 80° ENE 19:31:37 10° NNW
Meteor 1-16 Rocket 4.2 19:22:53 10° S 19:28:07 55° E 19:33:32 10° NNE
Cosmos 2154 Rocket 4.4 19:22:31 10° N 19:28:35 44° ENE 19:34:34 10° SE
IRIDIUM 114 4.3 19:23:27 10° N 19:28:42 76° E 19:33:54 10° S
SL-4 R/B 1.9 19:27:42 10° SW 19:30:56 43° SE 19:33:43 13° ENE
Nadezhda 1 Rocket 4.3 19:25:06 10° SSE 19:31:07 45° E 19:37:06 10° NNE
SeaSat 1 3.8 19:26:47 10° NNE 19:31:28 44° NW 19:36:07 10° SW
Aureole 3 4.2 19:27:07 10° SSW 19:31:43 79° W 19:37:41 10° N
Cosmos 1726 Rocket 4.0 19:29:26 10° SSE 19:33:32 39° E 19:37:40 10° NNE
Cosmos 1340 Rocket 3.9 19:32:48 14° SE 19:35:18 24° E 19:38:36 10° NE
ATLAS 5 CENTAUR R/B 2.6 19:33:29 10° SSE 19:36:37 21° ESE 19:39:59 10° ENE
IRIDIUM 103 4.3 19:32:37 10° N 19:37:53 90° E 19:43:06 10° S
Cosmos 1825 Rocket 3.5 19:35:38 10° N 19:40:03 75° E 19:44:24 10° SSE
Cosmos 1328 4.0 19:36:09 10° N 19:40:05 51° ENE 19:43:15 15° SSE
Cosmos 1703 3.3 19:41:33 10° N 19:45:30 61° E 19:48:40 15° SSE
SL-8 R/B 4.3 19:41:21 10° WNW 19:45:56 47° SSW 19:49:09 18° SE
Cosmos 614 Rocket 4.1 19:42:50 10° S 19:47:53 51° ESE 19:52:56 10° NNE
Cosmos 1943 Rocket 3.5 19:44:44 10° NW 19:49:49 38° WSW 19:54:54 10° S
Cosmos 1300 4.3 19:50:48 18° ENE 19:50:48 18° ENE 19:52:53 10° NE
Abrixas rocket 2.5 19:47:58 10° WNW 19:50:52 51° N 19:52:19 25° ENE
SPOT 3 Rocket 3.5 19:45:47 10° SSE 19:50:59 76° ENE 19:56:13 10° NNW
Cosmos 2369 Rocket 3.1 19:46:22 10° NW 19:51:51 49° WSW 19:57:14 10° S
Cosmos 1758 Rocket 3.8 19:48:30 10° NNW 19:52:49 68° W 19:57:06 10° S
Cosmos 2074 Rocket 4.1 19:46:45 10° N 19:53:03 81° W 19:59:21 10° S
COSMOS 2455 3.6 19:47:37 10° NNW 19:53:15 39° NE 19:56:39 21° ESE
SL-24 R/B 3.7 19:50:05 10° NNE 19:54:17 69° E 19:58:02 10° S
Cosmos 1437 3.5 19:52:16 10° NNW 19:55:13 49° W 19:58:05 10° S
Cosmos 921 Rocket 3.8 19:52:06 10° N 19:55:54 32° ENE 19:57:11 26° E
CZ-2C R/B 3.7 19:51:26 10° NNE 19:56:11 75° ESE 20:00:48 10° S
Cosmos 1953 3.7 19:53:50 10° SSW 19:57:36 41° WNW 20:01:25 10° N
Cosmos 407 Rocket 3.5 19:54:15 10° S 19:59:14 53° ESE 20:04:13 10° NNE
Cosmos 2228 2.9 19:55:32 10° S 19:59:49 88° E 20:04:11 10° N
Cosmos 1953 Rocket 3.5 19:55:55 10° N 20:00:26 82° E 20:04:01 16° S
Cosmos 1606 Rocket 3.6 19:58:00 10° S 20:02:26 83° W 20:06:56 10° N
Cosmos 1908 3.1 19:59:09 10° S 20:03:00 81° E 20:06:54 10° N
Cosmos 1818 3.7 20:01:41 10° SW 20:07:08 80° NW 20:12:37 10° NE
ERS-1 Rocket 4.4 20:07:40 19° ENE 20:08:39 20° ENE 20:12:15 10° NNE
Cosmos 1610 Rocket 4.4 20:02:52 10° N 20:09:07 88° E 20:14:59 11° S
SL-08 RB Rocket 4.4 20:06:40 10° S 20:11:07 54° W 20:15:39 10° NNW
Meteor 1-11 4.2 20:09:26 10° N 20:15:14 89° ENE 20:19:34 18° S
Cosmos 1943 3.9 20:11:02 10° SW 20:16:35 56° WNW 20:22:13 10° NNE
MetOp-B 4.4 20:15:08 31° SE 20:17:20 51° ENE 20:22:32 10° N
APEX 4.3 20:11:31 10° NNW 20:18:13 87° ENE 20:21:10 30° SSE
Cosmos 1461 3.2 20:13:56 10° NNW 20:18:25 62° NE 20:19:51 40° ESE
CZ-2C R/B 4.5 20:14:17 10° SSW 20:18:44 33° W 20:23:03 10° NNW
Cosmos 1954 Rocket 4.3 20:21:02 35° SE 20:22:25 42° ESE 20:27:18 10° NE
SAR-Lupe-2 4.1 20:23:55 10° NNE 20:26:38 42° ENE 20:26:38 42° ENE
H-2A R/B 4.0 20:23:45 10° SSW 20:28:09 27° W 20:32:28 10° NW
Cosmos 1295 Rocket 4.5 20:23:24 10° N 20:29:44 88° W 20:34:10 21° S
Cosmos 1023 Rocket 4.3 20:25:53 10° SSW 20:31:03 76° ESE 20:36:13 10° NNE
CZ-4C R/B 4.4 20:26:36 10° NNW 20:31:41 22° NNE 20:37:07 11° ENE
STARLINK-1228 3.8 20:30:06 10° NW 20:32:28 39° N 20:32:28 39° N
Cosmos 1076 Rocket 4.4 20:31:39 10° N 20:35:03 33° ENE 20:35:03 33° ENE
Resurs 1-3 4.4 20:33:01 20° SSW 20:35:51 48° W 20:40:07 10° NNW
SPOT 5 4.0 20:36:47 24° NE 20:36:47 24° NE 20:39:49 10° NNE
CZ-2C R/B 2.7 20:33:53 10° N 20:39:03 74° WNW 20:44:13 10° SSW
STARLINK-60 4.2 20:38:35 10° WSW 20:40:39 36° WSW 20:40:39 36° WSW
NOSS 3-4 (A) 4.0 20:35:35 10° NW 20:42:34 71° SW 20:46:22 32° SSE
NOSS 3-4 (C) 4.0 20:35:41 10° NW 20:42:41 71° SW 20:46:27 33° SSE
Aureole 1 Rocket 4.4 20:35:35 10° SSW 20:43:15 71° WNW 20:49:17 10° NNE
Cosmos 2341 Rocket 4.0 20:37:04 10° N 20:43:30 87° E 20:46:40 33° S
STARLINK-1233 4.2 20:40:51 10° NW 20:43:20 38° N 20:43:20 38° N
STARLINK-1212 4.2 20:41:19 10° NW 20:43:45 37° N 20:43:45 37° N
STARLINK-1105 4.2 20:41:45 10° NW 20:44:12 37° N 20:44:12 37° N
Cosmos 2058 3.8 20:41:14 10° N 20:44:18 35° NE 20:44:18 35° NE
STARLINK-1206 4.2 20:42:16 10° NW 20:44:37 37° NNW 20:44:37 37° NNW
STARLINK-1247 4.2 20:42:43 10° NW 20:45:03 36° NNW 20:45:03 36° NNW
STARLINK-1227 4.2 20:43:06 10° NW 20:45:29 37° NNW 20:45:29 37° NNW
STARLINK-1218 4.3 20:43:37 10° NW 20:45:55 36° NNW 20:45:55 36° NNW
STARLINK-1226 4.3 20:44:02 10° NW 20:46:21 36° NNW 20:46:21 36° NNW
STARLINK-1254 4.3 20:44:27 10° NW 20:46:47 37° NNW 20:46:47 37° NNW
STARLINK-1215 4.3 20:44:57 10° NW 20:47:13 36° NNW 20:47:13 36° NNW
STARLINK-1231 4.3 20:45:24 10° NW 20:47:39 36° NNW 20:47:39 36° NNW
STARLINK-1232 4.4 20:46:18 10° NW 20:48:31 35° NNW 20:48:31 35° NNW
Cosmos 1763 Rocket 4.4 20:44:42 10° N 20:49:22 32° ENE 20:49:35 32° ENE
STARLINK-1217 4.4 20:46:45 10° NW 20:48:57 35° NNW 20:48:57 35° NNW
STARLINK-1208 4.4 20:47:09 10° NW 20:49:24 36° NNW 20:49:24 36° NNW
STARLINK-1229 4.4 20:47:38 10° NW 20:49:48 35° NNW 20:49:48 35° NNW
STARLINK-1234 4.5 20:47:54 10° NW 20:49:52 34° NW 20:49:52 34° NW
STARLINK-1271 4.4 20:48:05 10° NW 20:50:15 35° NNW 20:50:15 35° NNW
STARLINK-1270 4.4 20:48:34 10° NW 20:50:42 34° NNW 20:50:42 34° NNW
STARLINK-1154 4.5 20:48:59 10° NW 20:51:06 34° NNW 20:51:06 34° NNW
Terra 3.1 20:55:02 28° NE 20:55:02 28° NE 20:58:33 10° N
STARLINK-1235 4.5 20:51:52 10° NW 20:53:55 35° NW 20:53:55 35° NW
STARLINK-1237 4.5 20:52:35 10° NW 20:56:32 41° NNE 20:56:48 40° NNE
RESURS DK-1 4.4 20:54:01 10° N 20:56:27 18° NE 20:56:27 18° NE
Cosmos 2058 Rocket 4.2 20:53:44 10° SSW 20:58:02 43° WNW 21:02:21 10° N
Resurs 01 Rocket 2.8 20:59:16 27° SW 21:00:57 38° W 21:05:05 10° NNW
Cosmos 2218 Rocket 3.9 20:54:47 10° N 21:01:01 75° E 21:02:26 55° SSE
STARLINK-1202 4.5 20:57:33 10° NW 21:01:31 42° NNE 21:01:35 42° NNE
Cosmos 1980 Rocket 4.1 20:58:35 10° N 21:01:56 16° NE 21:03:11 15° NE
Cosmos 1892 4.1 20:59:33 10° N 21:01:53 31° NNE 21:01:53 31° NNE
STARLINK-1203 4.4 21:01:57 10° NW 21:05:52 46° NNE 21:05:52 46° NNE
CARTOSAT-1 4.4 21:10:07 42° NNE 21:10:07 42° NNE 21:13:18 10° N
USA 234 3.1 21:02:49 10° NE 21:09:24 87° SE 21:15:57 10° SW
USA 245 4.4 21:08:37 53° S 21:09:59 76° WSW 21:16:17 10° NNW
Cosmos 1656 4.3 21:04:59 10° NNW 21:10:24 42° NE 21:10:37 42° ENE
SL-4 R/B 3.3 21:07:13 10° W 21:09:22 32° WNW 21:09:22 32° WNW
Iridium 4 Rocket 3.6 21:07:27 10° N 21:10:42 51° N 21:10:42 51° N
Cosmos 1140 Rocket 4.2 21:07:30 10° SW 21:12:33 51° WNW 21:17:36 10° NNE
Spot 2 Rocket 3.8 21:11:43 54° SSW 21:12:37 64° WSW 21:17:42 10° NNW
ATLAS 2AS CENTAUR R/B 3.6 21:07:45 10° NW 21:14:43 43° WSW 21:17:26 31° SSW
Cosmos 2181 Rocket 4.0 21:12:14 37° SSW 21:14:55 80° W 21:21:09 10° N
ATLAS 5 CENTAUR R/B 2.4 21:16:41 10° WSW 21:20:47 49° NW 21:25:26 10° NNE
SL-8 Rocket 4.2 21:15:11 10° NNW 21:21:27 67° W 21:23:20 46° SSW
Cosmos 864 Rocket 4.4 21:18:44 10° N 21:24:59 81° W 21:25:58 64° SSW
Cosmos 1300 4.3 21:25:42 33° WNW 21:25:42 33° WNW 21:29:06 10° N
IGS 5A 4.4 21:29:44 45° WNW 21:29:44 45° WNW 21:33:01 10° NNW
In-Cosmos 22 Rocket 4.4 21:25:38 10° NNW 21:31:26 66° W 21:32:08 60° SW
Cosmos 2366 rocket 4.1 21:27:00 10° NNW 21:33:06 68° W 21:34:07 58° SW
Meteor 2-12 Rocket 4.3 21:27:12 10° N 21:33:20 85° W 21:33:43 79° SSW
Cosmos 468 Rocket 4.1 21:29:17 10° NNW 21:33:48 68° NNW 21:33:48 68° NNW
COSMOS 2455 3.5 21:33:35 10° NW 21:39:17 45° WSW 21:39:49 44° SW
Nadezhda 3 Rocket 4.3 21:43:48 53° NE 21:43:48 53° NE 21:48:58 10° NNE
COSMOS 2406 4.4 21:45:30 30° NE 21:45:30 30° NE 21:48:25 10° NNE
ERS-1 Rocket 3.5 21:47:39 56° WNW 21:47:39 56° WNW 21:51:59 10° NNW
ATLAS CENTAUR R/B 3.7 21:46:05 10° NNW 21:47:36 17° N 21:47:36 17° N
SPOT 1/Viking Rocket 4.5 21:55:08 41° W 21:55:08 41° W 21:59:57 10° NNW
Cosmos 2369 4.3 22:01:21 10° NNW 22:05:45 50° N 22:05:45 50° N
Meteor 2-10 Rocket 4.5 22:12:36 45° N 22:12:36 45° N 22:16:23 10° N
Cosmos 1821 Rocket 4.2 22:08:48 10° N 22:14:33 71° NW 22:14:33 71° NW
Cosmos 1697 Rocket 3.4 22:12:58 10° NNW 22:17:11 51° NNW 22:17:11 51° NNW
CZ-4C R/B 3.3 22:14:55 10° NNW 22:21:47 54° NE 22:22:18 53° ENE
Cosmos 1934 Rocket 4.4 22:17:23 10° N 22:22:23 57° NNE 22:22:23 57° NNE
Terra 3.7 22:33:54 27° NW 22:33:54 27° NW 22:36:30 10° NNW
SL-16 R/B 4.0 22:28:22 10° N 22:32:21 22° NE 22:32:21 22° NE
Cosmos 2322 Rocket 4.0 22:38:17 10° N 22:42:08 22° NE 22:42:08 22° NE
Cosmos 1980 Rocket 3.3 22:41:21 10° NNW 22:44:56 40° NNW 22:44:56 40° NNW
USA 234 4.2 22:45:58 10° NE 22:52:05 44° NNW 22:58:10 10° W
Mayak 1.6 23:06:12 10° N 23:07:09 15° NNW 23:07:09 15° NNW
Cosmos 2082 Rocket 3.8 23:15:18 30° NNE 23:15:18 30° NNE 23:18:07 10° NNE
Cosmos 2344 4.3 23:07:22 10° NW 23:17:02 89° NE 23:18:38 72° SE
Cosmos 1833 Rocket 4.2 23:29:29 32° NNW 23:29:29 32° NNW 23:33:11 10° NNE
